TimeCST,TemperatureF,Dew PointF,Humidity,Sea Level PressureIn,VisibilityMPH,Wind Direction,Wind SpeedMPH,Gust SpeedMPH,PrecipitationIn,Events,Conditions,WindDirDegrees,DateUTC
12:52 AM,15.1,7.0,70,30.29,10.0,NNW,15.0,-,N/A,,Clear,340,2013-02-16 06:52:00
1:52 AM,15.1,6.1,68,30.28,10.0,NNW,9.2,-,N/A,,Clear,340,2013-02-16 07:52:00
3:52 AM,12.9,6.1,74,30.26,10.0,NW,5.8,-,N/A,,Clear,310,2013-02-16 09:52:00
4:52 AM,12.9,7.0,77,30.26,10.0,WNW,4.6,-,N/A,,Clear,300,2013-02-16 10:52:00
5:52 AM,12.0,7.0,80,30.25,10.0,West,5.8,-,N/A,,Clear,280,2013-02-16 11:52:00
6:52 AM,12.0,7.0,80,30.25,10.0,WNW,5.8,-,N/A,,Clear,290,2013-02-16 12:52:00
7:52 AM,14.0,8.1,77,30.25,10.0,West,9.2,-,N/A,,Clear,280,2013-02-16 13:52:00
8:52 AM,17.1,9.0,71,30.26,10.0,WNW,11.5,-,N/A,,Clear,300,2013-02-16 14:52:00
9:52 AM,19.0,10.9,71,30.25,10.0,WNW,13.8,-,N/A,,Partly Cloudy,290,2013-02-16 15:52:00
10:25 AM,19.4,10.4,68,30.21,10.0,WNW,13.8,-,N/A,,Mostly Cloudy,300,2013-02-16 16:25:00
10:52 AM,19.9,10.0,65,30.25,10.0,NW,10.4,-,N/A,,Overcast,320,2013-02-16 16:52:00
11:52 AM,21.0,10.9,65,30.23,10.0,NW,12.7,-,N/A,,Overcast,310,2013-02-16 17:52:00
12:52 PM,21.9,12.0,66,30.21,10.0,NW,12.7,-,N/A,,Mostly Cloudy,310,2013-02-16 18:52:00
1:29 PM,21.2,12.2,68,30.16,10.0,WNW,10.4,-,N/A,,Scattered Clouds,300,2013-02-16 19:29:00
1:52 PM,21.9,12.0,66,30.20,10.0,NW,11.5,25.3,N/A,,Scattered Clouds,320,2013-02-16 19:52:00
2:52 PM,23.0,10.9,60,30.19,10.0,WNW,15.0,-,N/A,,Partly Cloudy,300,2013-02-16 20:52:00
3:52 PM,24.1,12.0,60,30.19,10.0,NW,9.2,-,N/A,,Partly Cloudy,320,2013-02-16 21:52:00
4:52 PM,23.0,12.0,63,30.19,10.0,NW,10.4,-,N/A,,Partly Cloudy,320,2013-02-16 22:52:00
5:52 PM,19.9,12.0,71,30.21,10.0,NNW,6.9,-,N/A,,Clear,340,2013-02-16 23:52:00
6:52 PM,19.0,12.0,74,30.22,10.0,North,3.5,-,N/A,,Clear,350,2013-02-17 00:52:00
7:52 PM,17.1,12.9,84,30.22,10.0,Calm,Calm,-,N/A,,Clear,0,2013-02-17 01:52:00
8:52 PM,18.0,10.9,74,30.22,10.0,Calm,Calm,-,N/A,,Clear,0,2013-02-17 02:52:00
9:52 PM,15.1,10.0,80,30.21,10.0,NE,8.1,-,N/A,,Clear,50,2013-02-17 03:52:00
10:52 PM,16.0,9.0,74,30.20,10.0,Calm,Calm,-,N/A,,Clear,0,2013-02-17 04:52:00
11:52 PM,15.1,10.0,80,30.21,10.0,ESE,8.1,-,N/A,,Clear,110,2013-02-17 05:52:00